This is the latest recevied weather packets stored in our database for station/object KO4IDC-13. If no packets are shown the sender has not sent any weather packets the latest 10 day(s).
| Time | Temp. | Humidity | Pressure | Rain* | Wind** | Luminosity | Snow |
|---|---|---|---|---|---|---|---|
| 1778039391 | 10° C | 99% | 1011 hPa | 1.27 mm | - | 0 W/m² | - |
| 1778039089 | 10° C | 99% | 1011 hPa | 1.78 mm | - | 0 W/m² | - |
| 1778038786 | 10° C | 99% | 1010.9 hPa | 6.1 mm | - | 0 W/m² | - |
| 1778038483 | 10° C | 99% | 1011.2 hPa | 6.1 mm | - | 0 W/m² | - |
| 1778038180 | 10.56° C | 99% | 1010.8 hPa | 1.78 mm | - | 0 W/m² | - |
| 1778037877 | 10.56° C | 99% | 1010.4 hPa | 0 mm | - | 0 W/m² | - |
| 1778037573 | 10.56° C | 99% | 1010.5 hPa | 0 mm | - | 0 W/m² | - |
| 1778037271 | 10.56° C | 99% | 1010.2 hPa | 0 mm | - | 0 W/m² | - |
| 1778036969 | 10.56° C | 99% | 1010.3 hPa | 1.27 mm | - | 0 W/m² | - |
| 1778036666 | 10.56° C | 99% | 1010.4 hPa | 3.05 mm | - | 0 W/m² | - |
| 1778036363 | 10.56° C | 99% | 1010.4 hPa | 1.78 mm | - | 0 W/m² | - |
| 1778036060 | 10.56° C | 99% | 1010.3 hPa | 0 mm | - | 0 W/m² | - |
| 1778035756 | 10.56° C | 99% | 1010.3 hPa | 1.27 mm | - | 0 W/m² | - |
| 1778035454 | 10.56° C | 99% | 1010.3 hPa | 4.83 mm | - | 0 W/m² | - |
| 1778035149 | 11.11° C | 99% | 1010.5 hPa | 1.78 mm | - | 0 W/m² | - |
| 1778034847 | 11.11° C | 99% | 1010.4 hPa | 1.27 mm | - | 0 W/m² | - |
| 1778034543 | 11.11° C | 99% | 1010.1 hPa | 1.27 mm | - | 0 W/m² | - |
| 1778034241 | 11.11° C | 99% | 1009.8 hPa | 1.78 mm | - | 0 W/m² | - |
| 1778033939 | 11.11° C | 99% | 1009.6 hPa | 1.78 mm | - | 0 W/m² | - |
| 1778033635 | 11.11° C | 99% | 1009.6 hPa | 0 mm | - | 0 W/m² | - |
| 1778033332 | 11.11° C | 99% | 1009.5 hPa | 0 mm | - | 0 W/m² | - |
| 1778033030 | 11.11° C | 99% | 1009.6 hPa | 0 mm | - | 0 W/m² | - |
| 1778032727 | 11.11° C | 99% | 1009.7 hPa | 0 mm | - | 0 W/m² | - |
| 1778032425 | 11.11° C | 99% | 1009.6 hPa | 0 mm | - | 0 W/m² | - |
| 1778032121 | 11.67° C | 99% | 1009.3 hPa | 0 mm | - | 0 W/m² | - |
* Rain latest hour (hover to see other rain measurements)
** Current wind speed in m/s (hover to see current wind gust speed)